www.pogodaiklimat.ru

Погода и климат >> Архив погоды >> Япония >> Кобе


ПОГОДА в Кобе

  • Прогноз погоды в Кобе
  • Монитор погоды в Кобе

АРХИВ ПОГОДЫ в Кобе

Время (UTC), дата Ветер
(напр.,м/с)
 
Видим.   Явления Облачность Т
(С)
Тd
(С)
f
(%)
Тe
(С)
Тes
(С)
Комфортность P
(гПа)
Po
(гПа)
Тmin
(С)
Tmax
(С)
R
(мм)
R24
(мм)
S
(см)
04 10.07 В 4 н/о н/о +30.0 +20.8 58 +37 +37 очень
душно
1008.1 1004.7
05 10.07 ЮЗ 4 н/о н/о +27.9 +20.7 65 +35 +35 очень
душно
1008.3 1004.8
06 10.07 ЮЗ 5 15 км 9/3
[Cu med, cong Ac As]
+27.4 +21.2 69 +35 +36 очень
душно
1008.5 1005.0
08 10.07 ЮЗ 5 н/о н/о +27.1 +21.2 70 +34 +34 очень
душно
1008.7 1005.2
09 10.07 ЮЗ 4 н/о н/о +26.7 +20.5 69 +33 +33 очень
душно
1009.3 1005.8
10 10.07 ЮЗ 4 н/о н/о +26.2 +20.5 71 +33 +33 очень
душно
1009.6 1006.1
11 10.07 ЮЗ 4 н/о н/о +25.6 +20.4 73 +32 +32 очень
душно
1009.8 1006.3
12 10.07 ЮЗ 3 25 км 10/5
[Cu Sc Ac As]
+25.5 +20.5 74 +32 +32 очень
душно
1010.2 1006.7 +31.0
13 10.07 ЮЗ 2 н/о н/о +25.1 +20.8 77 +31 +31 очень
душно
1010.4 1006.9
14 10.07 СВ 4 н/о н/о +25.2 +18.9 68 +30 +30 душно 1010.4 1006.9
15 10.07 СВ 6 н/о н/о +24.7 +19.1 71 +30 +30 очень
душно
1010.4 1006.9
16 10.07 СВ 6 н/о н/о +24.1 +19.2 74 +29 +29 душно 1010.3 1006.8
17 10.07 СВ 8 н/о н/о +24.1 +19.4 75 +29 +29 душно 1009.9 1006.4
18 10.07 СВ 8 25 км слаб. дождь 10/3
[Cu Sc Ac As]
+23.8 +19.3 76 +29 +29 душно 1009.7 1006.2 0.0
19 10.07 СВ 8 н/о н/о +23.9 +19.4 76 +29 +29 душно 1009.8 1006.3
20 10.07 СВ 7 н/о н/о +23.7 +19.4 77 +29 +29 душно 1010.0 1006.5
21 10.07 СВ 7 н/о н/о +23.1 +20.4 85 +30 +30 очень
душно
1010.4 1006.9
22 10.07 СВ 8 н/о н/о +23.2 +20.4 84 +30 +30 очень
душно
1009.9 1006.4
23 10.07 СВ 8 н/о н/о +23.2 +20.7 86 +31 +31 очень
душно
1009.9 1006.4
00 11.07 СВ 10 10 км слаб. дождь 10/3
[Cu Sc Ac As]
+23.3 +21.0 87 +31 +31 очень
душно
1009.5 1006.0 +23.0 0.5
01 11.07 СВ 9 н/о н/о +23.5 +21.2 87 +30 +30 очень
душно
1009.1 1005.6
02 11.07 СВ 10 н/о н/о +23.5 +21.4 88 +30 +30 очень
душно
1008.6 1005.1
03 11.07 СВ 11 н/о н/о +24.3 +21.4 84 +31 +31 очень
душно
1008.0 1004.5
04 11.07 СВ 10 н/о н/о +23.6 +21.1 86 +30 +30 очень
душно
1008.1 1004.6
05 11.07 СВ 10 н/о н/о +24.0 +21.1 84 +30 +30 очень
душно
1007.7 1004.2
06 11.07 СВ 9 30 км {дождь} 10/5
[Cu Sc Ac As]
+24.5 +21.4 83 +31 +31 очень
душно
1007.4 1003.9 1
07 11.07 СВ 9 н/о н/о +24.7 +21.2 81 +31 +31 очень
душно
1007.0 1003.5
08 11.07 СВ 10 н/о н/о +24.6 +20.9 80 +31 +31 очень
душно
1006.6 1003.1
09 11.07 СВ 9 н/о н/о +24.7 +20.6 78 +31 +31 очень
душно
1006.4 1002.9
10 11.07 СВ 9 н/о н/о +24.6 +20.5 78 +31 +31 очень
душно
1006.4 1002.9
11 11.07 СВ 8 н/о н/о +23.0 +21.6 92 +31 +31 очень
душно
1006.7 1003.2
12 11.07 СВ 9 800 м ливневой дождь 10/10
[Cu med, cong]
+22.0 +21.7 98 +29 +29 очень
душно
1007.1 1003.6 +24.8 30
13 11.07 СВ 9 н/о н/о +22.1 +20.9 93 +29 +29 очень
душно
1007.1 1003.6
14 11.07 СВ 8 н/о н/о +22.0 +20.8 93 +28 +28 душно 1007.2 1003.7
15 11.07 СВ 8 н/о н/о +22.1 +20.4 90 +28 +28 душно 1006.9 1003.4
16 11.07 СВ 7 н/о н/о +22.0 +20.1 89 +28 +28 душно 1006.9 1003.4
17 11.07 СВ 7 н/о н/о +22.2 +20.1 88 +28 +28 душно 1006.6 1003.1
18 11.07 СВ 7 20 км {ливн. осадки} 9/6
[Cu med, cong Ac As]
+22.4 +20.0 86 +29 +29 очень
душно
1006.6 1003.1 0.5
19 11.07 СВ 6 н/о н/о +22.5 +19.9 85 +29 +29 очень
душно
1006.5 1003.0
20 11.07 СВ 6 н/о н/о +22.5 +19.9 85 +29 +29 очень
душно
1006.4 1002.9
21 11.07 СВ 5 н/о н/о +22.7 +19.9 84 +29 +29 очень
душно
1006.7 1003.2
22 11.07 В 4 н/о н/о +23.5 +20.3 82 +29 +29 душно 1007.0 1003.5
23 11.07 В 2 н/о н/о +24.5 +21.2 82 +31 +31 очень
душно
1007.0 1003.5
00 12.07 ЮВ 3 15 км 9/9
[Cu med, cong Ci sp]
+24.2 +21.1 83 +31 +32 очень
душно
1007.1 1003.6 +21.9 0.5
01 12.07 Ю 3 н/о н/о +23.9 +21.2 85 +30 +30 очень
душно
1006.8 1003.3
02 12.07 ЮЗ 3 н/о н/о +25.2 +21.7 81 +32 +32 очень
душно
1006.5 1003.0
03 12.07 ЮЗ 4 н/о н/о +26.7 +21.2 72 +34 +34 очень
душно
1005.8 1002.3
04 12.07 ЮЗ 5 н/о н/о +26.8 +20.6 69 +33 +33 очень
душно
1005.4 1001.9
06 12.07 ЮЗ 5 30 км 1/1
[Cu hum Ci sp]
+29.5 +19.5 55 +35 +42 очень
душно
1004.5 1001.1
07 12.07 ЮЗ 5 н/о н/о +29.0 +19.1 55 +34 +34 очень
душно
1004.3 1000.9
08 12.07 З 4 н/о н/о +28.9 +19.0 55 +34 +34 очень
душно
1004.1 1000.7
09 12.07 З 5 н/о н/о +28.5 +18.9 56 +34 +34 очень
душно
1004.2 1000.8
10 12.07 З 4 н/о н/о +28.1 +18.8 57 +33 +33 очень
душно
1004.4 1001.0
11 12.07 З 3 н/о н/о +27.1 +18.7 60 +32 +32 очень
душно
1005.0 1001.5
12 12.07 ЮЗ 3 40 км 5/1
[Cu hum Ac trans Ci sp]
+26.0 +19.9 69 +32 +32 очень
душно
1005.7 1002.2 +29.8
13 12.07 СВ 1 н/о н/о +26.1 +20.2 70 +32 +32 очень
душно
1005.7 1002.2
14 12.07 В 4 н/о н/о +25.5 +20.3 73 +31 +31 очень
душно
1005.9 1002.4
15 12.07 В 3 н/о н/о +25.3 +20.3 74 +31 +31 очень
душно
1005.6 1002.1
16 12.07 СВ 4 н/о н/о +25.1 +19.9 73 +31 +31 очень
душно
1005.6 1002.1
17 12.07 В 3 н/о н/о +24.6 +20.1 76 +30 +30 очень
душно
1005.4 1001.9
18 12.07 СВ 4 25 км 9/1
[Cu hum Ac trans Ci sp]
+24.4 +20.3 78 +30 +30 очень
душно
1005.1 1001.6
19 12.07 СВ 3 н/о н/о +24.2 +20.3 79 +30 +30 очень
душно
1004.9 1001.4
20 12.07 СВ 3 н/о н/о +24.0 +20.1 79 +30 +30 очень
душно
1005.1 1001.6
21 12.07 СВ 3 н/о н/о +24.0 +20.1 79 +30 +30 очень
душно
1005.2 1001.7
22 12.07 В 4 н/о н/о +24.4 +20.5 79 +30 +30 очень
душно
1005.0 1001.5
23 12.07 В 3 н/о н/о +24.8 +20.5 77 +31 +31 очень
душно
1005.2 1001.7
00 13.07 ЮВ 2 15 км в посл. час дождь 10/3
[Cu hum Ac As]
+24.8 +20.7 78 +31 +34 очень
душно
1005.4 1001.9 +23.9 0.0
01 13.07 В 2 н/о н/о +24.8 +21.1 80 +31 +31 очень
душно
1005.3 1001.8
02 13.07 Ю 2 н/о н/о +24.9 +21.4 81 +32 +32 очень
душно
1005.0 1001.5
03 13.07 ЮЗ 2 н/о н/о +25.3 +20.6 75 +31 +31 очень
душно
1004.5 1001.0
04 13.07 В 2 н/о н/о +26.0 +21.2 75 +33 +33 очень
душно
1004.1 1000.6
05 13.07 Ю 2 н/о н/о +25.4 +21.3 78 +32 +32 очень
душно
1003.8 1000.3
06 13.07 ЮЗ 5 10 км слаб. ливневой дождь 10/8
[Cu med, cong Ac As]
+23.5 +21.4 88 +30 +30 очень
душно
1004.4 1000.9 0.5
07 13.07 З 2 н/о н/о +22.8 +18.8 78 +29 +29 очень
душно
1004.1 1000.6
08 13.07 В 3 н/о н/о +23.2 +20.7 86 +31 +31 очень
душно
1002.7 999.2
09 13.07 В 5 н/о н/о +23.1 +20.3 84 +30 +30 очень
душно
1002.3 998.8
10 13.07 СВ 5 н/о н/о +22.6 +19.8 84 +29 +29 очень
душно
1002.5 999.0
11 13.07 СВ 6 н/о н/о +22.0 +19.8 87 +28 +28 душно 1002.0 998.5
12 13.07 СВ 6 10 км слаб. дождь 10/6
[Frnb Ac As]
+22.1 +20.6 91 +28 +28 душно 1002.1 998.6 +26.3 4
13 13.07 СВ 6 н/о н/о +21.8 +20.5 92 +28 +28 душно 1002.0 998.5
14 13.07 СВ 7 н/о н/о +21.8 +20.6 93 +28 +28 душно 1001.5 998.0
15 13.07 СВ 7 н/о н/о +21.8 +20.8 94 +28 +28 душно 1000.6 997.1
16 13.07 СВ 7 н/о н/о +22.0 +20.6 92 +28 +28 душно 999.9 996.4
17 13.07 СВ 7 н/о н/о +22.2 +20.5 90 +29 +29 очень
душно
999.4 995.9
18 13.07 СВ 7 20 км в посл. час ливневой дождь 10/10
[Cu med, cong]
+22.4 +20.5 89 +29 +29 очень
душно
998.9 995.4 4
19 13.07 СВ 5 н/о н/о +22.7 +20.6 88 +30 +30 очень
душно
999.2 995.7
20 13.07 В 1 н/о н/о +22.7 +21.2 91 +30 +30 очень
душно
999.1 995.6
21 13.07 СВ 3 н/о н/о +22.8 +20.7 88 +30 +30 очень
душно
999.5 996.0
22 13.07 В 3 н/о н/о +23.1 +20.6 86 +30 +30 очень
душно
1000.2 996.7
23 13.07 В 4 н/о н/о +23.2 +20.9 87 +31 +31 очень
душно
1000.6 997.1
00 14.07 СВ 2 20 км слаб. ливневой дождь 10/9
[Cu med, cong Ac As]
+23.0 +21.3 90 +31 +31 очень
душно
1001.2 997.7 +21.7 4
01 14.07 СЗ 1 н/о н/о +23.4 +21.3 88 +31 +31 очень
душно
1001.2 997.7
02 14.07 ЮЗ 2 н/о н/о +24.6 +21.9 85 +32 +32 очень
душно
1001.2 997.7
03 14.07 ЮЗ 3 н/о н/о +23.6 +21.9 90 +30 +30 очень
душно
1001.5 998.0
04 14.07 ЮЗ 3 н/о н/о +23.5 +22.5 94 +31 +31 очень
душно
1001.3 997.8
05 14.07 В 3 н/о н/о +24.8 +22.7 88 +33 +33 очень
душно
999.3 995.8
06 14.07 ЮЗ 3 20 км {ливн. осадки} 10/8
[Cu med, cong Ac As]
+23.9 +22.2 90 +31 +32 очень
душно
1000.7 997.2 0.5
07 14.07 ЮЗ 2 н/о н/о +24.5 +22.6 89 +32 +32 очень
душно
1001.1 997.6
08 14.07 СЗ 1 н/о н/о +24.3 +22.7 91 +32 +32 очень
душно
1001.0 997.5
10 14.07 З 1 н/о н/о +23.1 +22.8 98 +32 +32 очень
душно
1001.9 998.4
11 14.07 Ю 1 н/о н/о +23.0 +22.8 99 +32 +32 очень
душно
1002.0 998.5
12 14.07 ЮЗ 1 8000 м слаб. ливневой дождь 10/10
[Cu med, cong]
+23.0 +22.7 98 +32 +32 очень
душно
1002.5 999.0 +25.5 6
13 14.07 В 1 н/о н/о +23.0 +22.8 99 +32 +32 очень
душно
1002.7 999.2
14 14.07 ЮЗ 2 н/о н/о +23.0 +22.8 99 +32 +32 очень
душно
1003.1 999.6
15 14.07 З 2 н/о н/о +23.0 +22.8 99 +32 +32 очень
душно
1003.3 999.8
16 14.07 ЮЗ 2 н/о н/о +22.8 +22.3 97 +31 +31 очень
душно
1003.1 999.6
17 14.07 ЮЗ 2 н/о н/о +22.8 +22.1 96 +31 +31 очень
душно
1003.4 999.9
18 14.07 ЮЗ 2 15 км в посл. час ливневой дождь 9/9
[Cu med, cong]
+22.7 +22.0 96 +31 +31 очень
душно
1003.4 999.9 1
19 14.07 ЮЗ 2 н/о н/о +22.7 +21.9 95 +30 +30 очень
душно
1003.6 1000.1
20 14.07 ЮЗ 2 н/о н/о +22.7 +21.9 95 +30 +30 очень
душно
1003.8 1000.3
21 14.07 ЮЗ 1 н/о н/о +23.1 +21.7 92 +31 +31 очень
душно
1004.2 1000.7
22 14.07 ЮЗ 2 н/о н/о +23.4 +21.7 90 +32 +32 очень
душно
1005.4 1001.9
23 14.07 З 2 н/о н/о +24.0 +21.3 85 +30 +30 очень
душно
1005.5 1002.0
00 15.07 ЮЗ 1 25 км 9/1
[Cu med, cong Ac As]
+24.8 +21.5 82 +32 +37 очень
душно
1006.1 1002.6 +22.6 1
01 15.07 С 1 н/о н/о +26.4 +21.4 74 +34 +34 очень
душно
1006.0 1002.5
02 15.07 В 1 н/о н/о +27.3 +21.4 70 +35 +35 очень
душно
1005.5 1002.0
03 15.07 ЮЗ 3 н/о н/о +26.9 +21.9 74 +35 +35 очень
душно
1005.7 1002.2
04 15.07 ЮЗ 4 н/о н/о +28.2 +21.3 66 +36 +36 очень
душно
1005.5 1002.1
05 15.07 З 2 н/о н/о +28.2 +21.7 68 +36 +36 очень
душно
1005.6 1002.2
06 15.07 С 3 25 км 9/6
[Cu med, cong Ac As Ci fib]
+28.1 +20.4 63 +35 +37 очень
душно
1005.9 1002.5
07 15.07 С 3 н/о н/о +29.2 +20.4 59 +36 +36 очень
душно
1005.8 1002.4
08 15.07 З 2 н/о н/о +28.7 +19.9 59 +35 +35 очень
душно
1006.1 1002.7
09 15.07 С 4 н/о н/о +27.7 +19.8 62 +34 +34 очень
душно
1006.4 1002.9
10 15.07 В 4 н/о н/о +27.0 +19.9 65 +33 +33 очень
душно
1006.9 1003.4
11 15.07 В 4 н/о н/о +26.3 +19.7 67 +32 +32 очень
душно
1007.5 1004.0
12 15.07 В 3 30 км 8/4
[Cu Sc Ac trans Ci fib]
+26.0 +19.9 69 +32 +32 очень
душно
1008.0 1004.5 +29.2
13 15.07 В 3 н/о н/о +25.6 +19.5 69 +31 +31 очень
душно
1008.4 1004.9
14 15.07 СВ 5 н/о н/о +25.0 +19.4 71 +30 +30 душно 1009.1 1005.6
15 15.07 С 2 н/о н/о +24.3 +19.4 74 +29 +29 душно 1009.1 1005.6
16 15.07 штиль 0 н/о н/о +23.9 +19.2 75 +29 +29 душно 1009.0 1005.5
17 15.07 ЮЗ 2 н/о н/о +23.8 +19.5 77 +29 +29 душно 1009.2 1005.7
18 15.07 ЮЗ 1 30 км 9/1
[Cu hum Ac trans]
+23.7 +19.7 78 +29 +29 душно 1009.3 1005.8
19 15.07 СВ 1 н/о н/о +23.9 +19.8 78 +29 +29 душно 1009.6 1006.1
20 15.07 В 2 н/о н/о +23.8 +19.7 78 +29 +29 душно 1010.0 1006.5
21 15.07 В 3 н/о н/о +23.6 +19.6 78 +29 +29 душно 1010.5 1007.0
22 15.07 В 3 н/о н/о +24.8 +20.3 76 +31 +31 очень
душно
1010.8 1007.3
23 15.07 В 4 н/о н/о +25.7 +20.5 73 +32 +32 очень
душно
1011.0 1007.5
00 16.07 ЮВ 4 20 км 9/1
[Cu med, cong Ac trans Ci sp]
+27.1 +21.6 72 +35 +39 очень
душно
1011.0 1007.5 +23.3
01 16.07 ЮВ 3 н/о н/о +26.9 +21.0 70 +34 +34 очень
душно
1011.3 1007.8
02 16.07 В 3 н/о н/о +27.9 +21.9 70 +36 +36 очень
душно
1010.8 1007.3
03 16.07 В 3 н/о н/о +29.0 +21.8 65 +37 +37 очень
душно
1010.4 1007.0
04 16.07 Ю 3 н/о н/о +29.4 +21.6 63 +37 +37 очень
душно
1010.2 1006.8
05 16.07 ЮЗ 4 н/о н/о +29.4 +21.6 63 +37 +37 очень
душно
1010.1 1006.7
06 16.07 ЮЗ 4 25 км 9/1
[Cu med, cong Ac trans Ci sp]
+29.1 +20.6 60 +36 +40 очень
душно
1009.9 1006.5
07 16.07 ЮЗ 4 н/о н/о +29.1 +20.6 60 +36 +36 очень
душно
1009.9 1006.5
08 16.07 ЮЗ 5 н/о н/о +27.9 +21.5 68 +36 +36 очень
душно
1010.4 1006.9
09 16.07 ЮЗ 5 н/о н/о +26.9 +21.9 74 +35 +35 очень
душно
1009.9 1006.4
10 16.07 ЮЗ 4 н/о н/о +26.5 +22.4 78 +35 +35 очень
душно
1011.2 1007.7
11 16.07 З 3 н/о н/о +26.0 +22.7 82 +34 +34 очень
душно
1011.4 1007.9
12 16.07 З 2 15 км 8/3
[Cu Sc Ac As]
+25.8 +22.9 84 +34 +34 очень
душно
1011.4 1007.9 +30.4
13 16.07 З 4 н/о н/о +25.3 +23.2 88 +34 +34 очень
душно
1012.6 1009.1
14 16.07 З 3 н/о н/о +25.3 +23.0 87 +34 +34 очень
душно
1012.4 1008.9
15 16.07 З 3 н/о н/о +25.4 +22.9 86 +34 +34 очень
душно
1012.0 1008.5
16 16.07 З 3 н/о н/о +24.9 +23.2 90 +33 +33 очень
душно
1012.0 1008.5
17 16.07 З 2 н/о н/о +25.0 +22.7 87 +33 +33 очень
душно
1011.8 1008.3
18 16.07 З 4 8000 м ливневой дождь 10/10
[Cu med, cong]
+24.2 +22.8 92 +32 +32 очень
душно
1012.4 1008.9 6
19 16.07 З 3 н/о н/о +23.8 +22.8 94 +31 +31 очень
душно
1012.3 1008.8
20 16.07 З 1 н/о н/о +24.1 +22.9 93 +32 +32 очень
душно
1012.9 1009.4
21 16.07 СВ 1 н/о н/о +24.1 +23.1 94 +32 +32 очень
душно
1013.3 1009.8
22 16.07 В 2 н/о н/о +24.7 +23.3 92 +33 +33 очень
душно
1013.5 1010.0
23 16.07 В 2 н/о н/о +25.4 +22.9 86 +34 +34 очень
душно
1013.9 1010.4
00 17.07 В 2 20 км в посл. час ливневой дождь 6/3
[Cb calv Ac trans]
+26.5 +22.6 79 +35 +42 очень
душно
1013.6 1010.1 +23.4 22
01 17.07 Ю 2 н/о н/о +28.0 +22.7 73 +37 +37 очень
душно
1013.2 1009.7

 

Местоположение метеостанции Кобе (Япония): широта 34.70 долгота 135.21 высота над уровнем моря 30 м.

В архиве по умолчанию представлена погода в Кобе за последнюю неделю. Архивные данные за месяц целиком и за предыдущие месяцы, начиная с января 2011 года, Вы можете получить, выбрав интересующий диапазон дат из раскрывающегося списка и нажав кнопку "Ввод!".


*Определитесь, кто Вы:
робот инопланетянин человек

Внимание! Время в таблицах - всемирное. Для получения местного времени необходимо прибавить поправку, которая равна 9 ч.

Смотрите также архив погоды в соседних городах и на ближайших метеорологических станциях:

Погода в Осаке (Япония) (28 км)
Погода в Сумото (Япония) (50 км)
Погода в Химедзи (Япония) (52 км)
Погода в Вакаяме (Япония) (52 км)
Погода в Наре (Япония) (57 км)
Погода в Киото (Япония) (59 км)
Погода в Майдзуру (Япония) (84 км)
Погода в Уэно (Япония) (86 км)
Погода в Токусиме (Япония) (92 км)
Погода в Тоёоке (Япония) (99 км)

Пояснения к столбцам:

Ветер - указаны скорость ветра в м/с - средняя за 10 мин, порывы в срок и между сроками (в фигурных скобках) и направление, откуда дует ветер: С - северный, СВ - северо-восточный, В - восточный, ЮВ - юго-восточный, Ю - южный, ЮЗ - юго-западный, З - западный, СЗ - северо-западный.
Видимость - горизонтальная дальность видимости в метрах или километрах. При видимости от 1 до 10 км при отсутствии осадков обычно наблюдается дымка, при ухудшении видимости до 1 км и менее - туман. В сухую погоду видимость может ухудшаться дымом, пылью или мглою.
Явления - указаны атмосферные явления, наблюдавшиеся в срок или в последний час перед сроком; фигурными скобками обозначены явления, наблюдавшиеся между сроками (за 1-3 часа до срока); квадратными скобками обозначены град или гололедные отложения с указанием их диаметра в мм.
Облачность - указаны через наклонную черту общая и нижняя облачность в баллах и высота нижней границы облаков в метрах; квадратными скобками обозначены формы облаков: Ci - перистые, Cs - перисто-слоистые, Cc - перисто-кучевые, Ac - высококучевые, As - высокослоистые, Sc - слоисто-кучевые, Ns - слоисто-дождевые, Cu - кучевые, Cb - кучево-дождевые. Подробнее классификацию облаков см. в Атласе облаков (PDF).
T - Температура воздуха - температура, измеренная на высоте 2 м над землей.
Td - Температура точки росы - температура, при понижении до которой содержащийся в воздухе водяной пар достигнет насыщения.
f - Относительная влажность воздуха - влажноcть воздуха, измеренная на высоте 2 м над землей.
Te - Эффективная температура - температура, которую ощущает одетый по сезону человек в тени. Характеристика душности погоды. При расчете учитывается влияние влажности воздуха и скорости ветра на теплоощущения человека.
Tes - Эффективная температура на солнце - температура, которую ощущает человек, с поправкой на солнечный нагрев. Характеристика знойности погоды. Зависит от высоты солнца над горизонтом, облачности и скорости ветра. Ночью, в пасмурную погоду, а также при ветре 12 м/с и более поправка равна нулю.
P - Атмосферное давление - приведенное к уровню моря атмосферное давление.
Po - Атмосферное давление - измеренное на уровне метеостанции атмосферное давление.
Tmin - Минимальная температура - минимум температуры воздуха на высоте 2 м над землей.
Tmax - Максимальная температура - максимум температуры воздуха на высоте 2 м над землей.
R - Количество осадков - Количество выпавших осадков за период времени, мм. При наведении курсора мыши на число - период времени, за который выпало указанное количество осадков.
R24 - Количество осадков - Количество выпавших осадков за 24 часа, мм.
S - Снежный покров - Высота снежного покрова, см. При наведении курсора мыши на число - состояние снежного покрова и степень покрытия местности в баллах.